• Join FlightAware (Why Join?)
  • Login
  • US Flag GB Flag 
13:41 EDT


 

Airport Tracker/Info


-or-


 

Live Flight TrackerFlight Track Log ✈ BOE1 ✈ 19-Oct-2013 ✈ KBFI - KBFI

Flight Track Log - Related Links

Times and Time Zones

All times are in EDT time to prevent confusion due to time zone crossing. See the BOE1 flight status page for this flight to view local times or setup timezone preferences in your user account.

Time Position Orientation Groundspeed Altitude Reporting Facility
EDT Latitude Longitude Course Direction KTS MPH feet Rate Location/Type
15:35 47.4730 -122.2540 149° Southeast 224 258 2,300  Level FlightAware
15:35 47.4640 -122.2460 149° Southeast 242 278 2,500 2,040 Climbing FlightAware
15:36 47.4430 -122.2280 150° Southeast 256 295 3,500 5,520 Climbing FlightAware
15:36 47.4030 -122.1690 135° Southeast 266 306 6,100 5,400 Climbing FlightAware
15:37 47.4140 -122.1200 72° East 264 304 7,500 3,000 Climbing FlightAware
15:37 47.4180 -122.1140 45° Northeast 263 303 7,800 3,480 Climbing FlightAware
15:37 47.4260 -122.1070 31° Northeast 260 299 8,200 3,000 Climbing FlightAware
15:37 47.4330 -122.1040 16° North 258 297 8,500 2,580 Climbing FlightAware
15:37 47.4440 -122.1030 North 259 298 8,900 3,000 Climbing FlightAware
15:37 47.4770 -122.1030 360° North 265 305 10,300 3,180 Climbing FlightAware
15:38 47.5190 -122.1030 360° North 267 307 12,100 2,880 Climbing FlightAware
15:39 47.5650 -122.1030 360° North 275 316 13,800 2,040 Climbing FlightAware
15:39 47.6170 -122.1040 359° North 281 323 14,800 960 Climbing FlightAware
15:40 47.6390 -122.1020 North 285 328 14,800  Level FlightAware
15:40 47.6930 -122.0920 North 284 327 14,800  Level FlightAware
15:41 47.7370 -122.0840 North 282 325 14,800 -120 Level FlightAware
15:41 47.7840 -122.0750 North 280 322 14,700  Descending FlightAware
15:42 47.8250 -122.0680 North 278 320 14,800 60 Climbing FlightAware
15:43 47.8740 -122.0600 North 288 331 14,800  Level FlightAware
15:43 47.9170 -122.0540 North 295 339 14,800  Level FlightAware
15:44 47.9640 -122.0480 North 293 337 14,800  Level FlightAware
15:44 48.0180 -122.0440 North 292 336 14,800 -120 Level FlightAware
15:45 48.0610 -122.0390 North 292 336 14,700 -180 Descending FlightAware
15:45 48.0700 -122.0330 24° Northeast 297 342 14,700  Level FlightAware
15:45 48.0850 -122.0190 32° Northeast 302 348 14,700  Level FlightAware
15:46 48.0980 -121.9930 53° Northeast 312 359 14,700  Level FlightAware
15:46 48.1040 -121.9690 69° East 320 368 14,700  Level FlightAware
15:46 48.1070 -121.9370 82° East 330 380 14,700 60 Level FlightAware
15:47 48.1020 -121.8500 95° East 333 383 14,800 60 Climbing FlightAware
15:47 48.0960 -121.7710 96° East 333 383 14,800  Level FlightAware
15:48 48.0900 -121.6870 96° East 335 386 14,800  Level FlightAware
15:48 48.0860 -121.6160 95° East 334 384 14,800  Level FlightAware
15:49 48.0830 -121.5330 93° East 333 383 14,800 -120 Level FlightAware
15:50 48.0800 -121.4490 93° East 331 381 14,700 -120 Descending FlightAware
15:50 48.0770 -121.3640 93° East 349 402 14,700  Level FlightAware
15:51 48.0740 -121.2870 93° East 364 419 14,700  Level FlightAware
15:51 48.0710 -121.1890 93° East 367 422 14,700  Level FlightAware
15:52 48.0680 -121.1100 93° East 368 423 14,700  Level FlightAware
15:52 48.0650 -121.0180 93° East 368 423 14,700 60 Level FlightAware
15:53 48.0610 -120.9260 94° East 370 426 14,800 60 Climbing FlightAware
15:54 48.0550 -120.8350 96° East 370 426 14,800 60 Level FlightAware
15:54 48.0490 -120.7530 96° East 369 425 14,900 60 Climbing FlightAware
15:55 48.0430 -120.6630 96° East 370 426 14,900  Level FlightAware
15:55 48.0370 -120.5710 96° East 366 421 14,900  Level FlightAware
15:56 48.0310 -120.4790 96° East 370 426 14,900 -120 Level FlightAware
15:56 48.0270 -120.3980 94° East 369 425 14,800 -120 Descending FlightAware
15:57 48.0210 -120.2820 94° East 368 423 14,800  Level FlightAware
15:58 48.0170 -120.2040 94° East 368 423 14,800  Level FlightAware
15:59 48.0130 -120.1220 94° East 368 423 14,800  Level FlightAware
16:00 48.0006 -119.9278 94° East 366 421 14,900  Climbing Seattle Center
16:01 47.9897 -119.7761 96° East 367 422 14,900  Level Seattle Center
16:02 47.9803 -119.6286 95° East 360 414 14,900  Level Seattle Center
16:03 47.9739 -119.4822 94° East 354 407 15,000  Climbing Seattle Center
16:04 47.9675 -119.2886 93° East 389 448 15,000 -60 Level Seattle Center
16:05 47.9606 -119.1225 94° East 403 464 14,900 -120 Descending Seattle Center
16:06 47.9531 -118.9567 94° East 401 461 14,800  Descending Seattle Center
16:07 47.9417 -118.7908 96° East 404 465 14,900 60 Climbing Seattle Center
16:08 47.9303 -118.6247 96° East 407 468 15,000  Climbing Seattle Center
16:09 47.9200 -118.4503 95° East 423 487 15,000  Level Seattle Center
16:10 47.9100 -118.2686 95° East 437 503 15,100 60 Climbing Seattle Center
16:11 47.9000 -118.0875 95° East 438 504 15,200 -120 Climbing Seattle Center
16:12 47.8872 -117.9086 96° East 436 502 14,900 -120 Descending Seattle Center
16:13 47.8706 -117.7289 98° East 439 505 15,000  Climbing Seattle Center
16:14 47.8533 -117.5389 98° East 459 528 15,000  Level Seattle Center
16:15 47.8358 -117.3439 98° East 472 543 15,000 -60 Level Seattle Center
16:16 47.8192 -117.1497 97° East 469 540 14,900  Descending Seattle Center
16:17 47.7894 -116.9272 101° East 461 531 15,100 60 Climbing Seattle Center
16:18 47.6897 -116.8781 162° South 472 543 15,100 -120 Level Seattle Center
16:19 47.6522 -117.0486 252° West 431 496 14,900  Descending Seattle Center
16:20 47.6867 -117.2103 288° West 418 481 15,100 120 Climbing Seattle Center
16:21 47.7217 -117.3681 288° West 412 474 15,200 -120 Climbing Seattle Center
16:22 47.7575 -117.5292 288° West 413 475 14,900 -180 Descending Seattle Center
16:23 47.7933 -117.6917 288° West 414 476 14,900 -180 Level Seattle Center
16:24 47.8289 -117.8519 288° West 413 475 14,600  Descending Seattle Center
16:25 47.8558 -118.0172 284° West 415 478 14,900 180 Climbing Seattle Center
16:26 47.8703 -118.1889 277° West 420 483 15,000  Climbing Seattle Center
16:27 47.8858 -118.3589 278° West 418 481 15,000  Level Seattle Center
16:28 47.9028 -118.5331 278° West 424 488 15,000  Level Seattle Center
16:29 47.9189 -118.7050 278° West 421 484 15,000  Level Seattle Center
16:30 47.9344 -118.9147 276° West 428 493 15,000 -60 Level Seattle Center
16:31 47.9442 -119.0894 275° West 425 489 14,900  Descending Seattle Center
16:32 47.9519 -119.2644 274° West 425 489 15,000  Climbing Seattle Center
16:33 47.9564 -119.4403 272° West 426 490 14,900  Descending Seattle Center
16:39 47.9870 -120.4000 272° West 427 491 15,100  Climbing FlightAware
16:39 47.9950 -120.5070 276° West 429 494 15,000 -180 Descending FlightAware
16:40 48.0020 -120.6130 276° West 427 491 14,900 -180 Descending FlightAware
16:40 48.0070 -120.7060 275° West 429 494 14,800 -120 Descending FlightAware
16:41 48.0150 -120.8050 277° West 427 491 14,800  Level FlightAware
16:42 48.0260 -120.9180 278° West 426 490 14,800  Level FlightAware
16:42 48.0350 -121.0130 278° West 428 493 14,800  Level FlightAware
16:43 48.0450 -121.1160 278° West 428 493 14,800 -420 Level FlightAware
16:43 48.0170 -121.1780 236° Southwest 456 525 14,400 -600 Descending FlightAware
16:43 48.0060 -121.1790 183° South 455 524 14,500 1,020 Climbing FlightAware
16:44 47.9560 -121.1510 159° South 459 528 14,900 600 Climbing FlightAware
16:44 47.9410 -121.1250 131° Southeast 461 531 14,900  Level FlightAware
16:44 47.9350 -121.1070 116° Southeast 460 529 14,900  Level FlightAware
16:44 47.9300 -121.0750 103° East 460 529 14,900  Level FlightAware
16:45 47.9330 -120.9880 87° East 458 527 14,900 60 Level FlightAware
16:45 47.9220 -120.8880 99° East 473 544 15,000 120 Climbing FlightAware
16:45 47.9110 -120.8670 128° Southeast 477 549 15,000  Level FlightAware
16:45 47.8980 -120.8510 140° Southeast 480 552 15,000  Level FlightAware
16:46 47.8760 -120.8180 135° Southeast 477 549 15,000  Level FlightAware
16:46 47.8690 -120.7940 113° Southeast 467 537 15,000 -360 Level FlightAware
16:46 47.8860 -120.7180 72° East 443 510 14,800  Descending FlightAware
16:47 47.9140 -120.6700 49° Northeast 434 499 15,000 300 Climbing FlightAware
16:47 47.9430 -120.6300 43° Northeast 440 506 15,000 180 Level FlightAware
16:47 47.9480 -120.6130 66° East 444 511 15,100 480 Climbing FlightAware
16:47 47.9490 -120.5950 85° East 447 514 15,100  Level FlightAware
16:48 47.9450 -120.4740 93° East 460 529 15,100 -240 Level FlightAware
16:49 47.9420 -120.3580 92° East 453 521 14,800 -240 Descending FlightAware
16:49 47.9400 -120.2600 92° East 453 521 14,800  Level FlightAware
16:50 47.9380 -120.1640 92° East 453 521 14,800 60 Level FlightAware
16:51 47.9308 -119.9814 92° East 463 533 14,900  Climbing Seattle Center
16:52 47.9347 -119.7886 88° East 465 535 14,800  Descending Seattle Center
16:53 47.9425 -119.5975 86° East 464 534 14,900 120 Climbing Seattle Center
16:54 47.9489 -119.4064 87° East 464 534 15,100  Climbing Seattle Center
16:55 47.9558 -119.1769 87° East 462 532 15,000  Descending Seattle Center
16:56 47.9497 -118.9831 93° East 468 539 15,100 60 Climbing Seattle Center
16:57 47.9636 -118.7939 84° East 463 533 15,200 -120 Climbing Seattle Center
16:58 47.9806 -118.6058 82° East 463 533 14,900 -120 Descending Seattle Center
16:59 47.9861 -118.4142 87° East 463 533 15,000 60 Climbing Seattle Center
17:00 47.9853 -118.2192 90° East 468 539 15,100 60 Climbing Seattle Center
17:01 47.9892 -118.0244 88° East 469 540 15,200  Climbing Seattle Center
17:02 48.0144 -117.8336 79° East 469 540 15,200 60 Level Seattle Center
17:03 48.0122 -117.6369 91° East 484 557 15,400 60 Climbing Seattle Center
17:04 47.9825 -117.4419 103° East 482 555 15,400 -60 Level Seattle Center
17:05 47.9678 -117.2433 96° East 479 551 15,300  Descending Seattle Center
17:06 47.9478 -117.0492 99° East 475 547 15,500 -240 Climbing Seattle Center
17:07 47.8422 -116.9419 146° Southeast 475 547 14,900 -300 Descending Seattle Center
17:08 47.7339 -117.0522 214° Southwest 439 505 15,000  Climbing Seattle Center
17:09 47.7375 -117.2203 272° West 417 480 15,000  Level Seattle Center
17:10 47.7522 -117.3922 277° West 414 476 15,000  Level Seattle Center
17:11 47.7681 -117.5608 278° West 415 478 15,000  Level Seattle Center
17:12 47.7844 -117.7317 278° West 419 482 15,000  Level Seattle Center
17:13 47.8017 -117.9028 279° West 421 484 15,000  Level Seattle Center
17:14 47.8183 -118.0739 278° West 420 483 15,000  Level Seattle Center
17:15 47.8350 -118.2461 278° West 422 486 15,000  Level Seattle Center
17:16 47.8531 -118.4172 279° West 421 484 15,000  Level Seattle Center
17:17 47.8694 -118.5897 278° West 421 484 15,000  Level Seattle Center
17:18 47.8856 -118.7619 278° West 421 484 15,000  Level Seattle Center
17:19 47.9039 -118.9356 279° West 425 489 15,000  Level Seattle Center
17:20 47.9239 -119.1425 278° West 421 484 15,000  Level Seattle Center
17:21 47.9400 -119.3128 278° West 418 481 15,000  Level Seattle Center
17:22 47.9597 -119.4836 280° West 421 484 15,000 -60 Level Seattle Center
17:28 48.0710 -120.3960 280° West 423 487 14,800 -60 Descending FlightAware
17:29 48.0790 -120.5010 277° West 425 489 14,800 -120 Level FlightAware
17:29 48.0840 -120.5960 275° West 426 490 14,700 60 Descending FlightAware
17:30 48.0790 -120.7350 267° West 362 417 14,900 240 Climbing FlightAware
17:30 48.0690 -120.7540 232° Southwest 358 412 15,000 300 Climbing FlightAware
17:30 48.0550 -120.7680 214° Southwest 356 410 15,000  Level FlightAware
17:30 48.0420 -120.7750 200° South 363 418 15,000 -180 Level FlightAware
17:31 48.0020 -120.7650 171° South 369 425 14,900 -300 Descending FlightAware
17:31 47.9840 -120.7370 134° Southeast 370 426 14,800 -300 Descending FlightAware
17:31 47.9780 -120.7190 116° Southeast 365 420 14,800  Level FlightAware
17:31 47.9750 -120.6990 103° East 359 413 14,800 120 Level FlightAware
17:32 47.9770 -120.6170 88° East 383 441 14,900 60 Climbing FlightAware
17:32 47.9810 -120.5240 86° East 394 453 14,900 60 Level FlightAware
17:33 47.9860 -120.4240 86° East 419 482 15,000 -120 Climbing FlightAware
17:34 47.9950 -120.3100 83° East 435 501 14,800 -180 Descending FlightAware
17:34 48.0020 -120.2190 83° East 435 501 14,800  Level FlightAware
17:35 48.0100 -120.1280 82° East 435 501 14,800 300 Level FlightAware
17:36 48.0258 -119.8389 82° East 454 522 15,400  Climbing Seattle Center
17:37 48.0194 -119.6797 93° East 388 447 14,900 -300 Descending Seattle Center
17:38 48.0100 -119.5322 95° East 362 417 14,900 300 Level Seattle Center
17:39 47.9983 -119.3861 97° East 357 411 15,600 1,020 Climbing Seattle Center
17:40 47.9786 -119.2467 102° East 346 398 17,000 1,260 Climbing Seattle Center
17:41 47.9539 -119.1036 104° East 354 407 18,200 1,740 Climbing Seattle Center
17:42 47.9347 -118.9578 101° East 359 413 20,600 1,860 Climbing Seattle Center
17:43 47.9281 -118.8064 94° East 364 419 22,000 660 Climbing Seattle Center
17:44 47.9197 -118.6519 95° East 373 429 22,000  Level Seattle Center
17:45 47.9103 -118.4992 95° East 372 428 22,000  Level Seattle Center
17:46 47.9014 -118.3453 95° East 374 430 22,000  Level Seattle Center
17:47 47.8908 -118.1925 96° East 372 428 22,000  Level Seattle Center
17:48 47.8794 -118.0086 95° East 372 428 22,000  Level Seattle Center
17:49 47.8700 -117.8533 95° East 377 434 22,000  Level Seattle Center
17:50 47.8586 -117.6969 96° East 380 437 22,100  Climbing Seattle Center
17:51 47.8489 -117.5419 95° East 377 434 22,100 -60 Level Seattle Center
17:53 47.8394 -117.4198 97° East  Level FlightAware Approximate
17:54 47.8206 -117.2303 97° East 380 437 22,000  Level Seattle Center
17:55 47.8100 -117.0678 95° East 387 445 22,100 60 Climbing Seattle Center
17:56 47.8058 -116.9025 92° East 394 453 22,200 -60 Climbing Seattle Center
17:57 47.8022 -116.7378 92° East 395 455 22,000 -180 Descending Seattle Center
17:58 47.7983 -116.5742 92° East 395 455 21,900 -120 Descending Seattle Center
17:59 47.8619 -116.5072 35° Northeast 352 405 21,800  Descending Seattle Center
18:00 47.8772 -116.6414 280° West 351 404 22,000  Climbing Seattle Center
18:01 47.8650 -116.7947 263° West 369 425 21,900 -120 Descending Seattle Center
18:02 47.8547 -116.9439 264° West 369 425 21,800 60 Descending Seattle Center
18:03 47.8469 -117.0967 266° West 372 428 22,100  Climbing Seattle Center
18:04 47.8358 -117.2858 265° West 385 443 21,900 -180 Descending Seattle Center
18:05 47.8258 -117.4511 265° West 401 461 21,800 -180 Descending Seattle Center
18:06 47.8158 -117.6169 265° West 407 468 21,600 60 Descending Seattle Center
18:07 47.8064 -117.7797 265° West 400 460 22,000 360 Climbing Seattle Center
18:08 47.7989 -117.9464 266° West 405 466 22,400 120 Climbing Seattle Center
18:09 47.8142 -118.1069 278° West 410 472 22,300 -300 Descending Seattle Center
18:10 47.8081 -118.2556 267° West 416 479 21,900 -300 Descending Seattle Center
18:11 47.8511 -118.4025 294° West 409 471 21,800 60 Descending Seattle Center
18:12 47.8506 -118.5653 270° West 404 465 22,100 60 Climbing Seattle Center
18:13 47.8725 -118.7347 281° West 415 478 22,000  Descending Seattle Center
18:19 47.9740 -119.8260 281° West 467 537 22,500 60 Climbing FlightAware
18:19 47.9800 -119.9470 274° West 470 541 22,600 -120 Climbing FlightAware
18:20 47.9840 -120.0690 273° West 462 532 22,400 -540 Descending FlightAware
18:20 47.9920 -120.1720 277° West 459 528 22,000 -300 Descending FlightAware
18:21 48.0030 -120.2850 278° West 463 533 22,100 120 Climbing FlightAware
18:22 48.0130 -120.3990 278° West 465 535 22,200  Climbing FlightAware
18:22 48.0230 -120.5090 278° West 464 534 22,100 -300 Descending FlightAware
18:23 48.0320 -120.6180 277° West 466 536 21,900 -180 Descending FlightAware
18:23 48.0410 -120.7320 277° West 465 535 21,900 60 Level FlightAware
18:24 48.0500 -120.8480 277° West 466 536 22,000 120 Climbing FlightAware
18:25 48.0470 -120.9760 268° West 472 543 22,100 -120 Climbing FlightAware
18:25 48.0290 -121.0190 238° Southwest 489 563 21,900 -960 Descending FlightAware
18:25 48.0050 -121.0430 214° Southwest 506 582 21,700 -600 Descending FlightAware
18:25 47.9870 -121.0510 197° South 516 594 21,700  Level FlightAware
18:25 47.9680 -121.0510 180° South 521 600 21,700  Level FlightAware
18:26 47.9400 -121.0400 165° South 529 609 21,700  Level FlightAware
18:26 47.9170 -121.0130 142° Southeast 526 605 21,700 300 Level FlightAware
18:26 47.9060 -120.9910 127° Southeast 523 602 21,800 780 Climbing FlightAware
18:26 47.8920 -120.9450 114° Southeast 523 602 22,000 420 Climbing FlightAware
18:26 47.8850 -120.8940 102° East 523 602 22,000  Level FlightAware
18:27 47.8790 -120.7670 94° East 522 601 22,000 120 Level FlightAware
18:28 47.8770 -120.6010 91° East 519 597 22,200 60 Climbing FlightAware
18:28 47.8820 -120.4660 87° East 514 592 22,100 -180 Descending FlightAware
18:29 47.8870 -120.3410 87° East 515 593 22,000 -180 Descending FlightAware
18:30 47.8930 -120.1950 86° East 514 592 21,900 -180 Descending FlightAware
18:30 47.8980 -120.0690 87° East 516 594 21,800  Descending FlightAware
18:31 47.9000 -119.9510 89° East 517 595 21,900 120 Climbing FlightAware
18:32 47.9040 -119.8040 88° East 519 597 22,000 60 Climbing FlightAware
18:32 47.9060 -119.6940 88° East 519 597 22,000  Level FlightAware
18:33 47.9090 -119.5840 88° East 519 597 22,000  Level FlightAware
18:33 47.9110 -119.4750 88° East 519 597 22,000  Level FlightAware
18:34 47.9140 -119.3650 88° East 519 597 22,000  Level FlightAware
18:35 47.9160 -119.2560 88° East 519 597 22,000  Level FlightAware
18:35 47.8878 -119.0528 88° East 523 602 22,000  Level Seattle Center
18:36 47.8744 -118.8383 95° East 522 601 22,000  Level Seattle Center
18:37 47.8569 -118.6203 97° East 530 610 22,000 -60 Level Seattle Center
18:38 47.8389 -118.4031 97° East 531 611 21,900 -60 Descending Seattle Center
18:39 47.8225 -118.1881 96° East 527 606 21,900  Level Seattle Center
18:40 47.8067 -117.9719 96° East 526 605 21,900  Level Seattle Center
18:41 47.7931 -117.7553 95° East 527 606 22,000  Climbing Seattle Center
18:42 47.7783 -117.5381 96° East 528 608 21,900  Descending Seattle Center
18:43 47.7667 -117.3203 94° East 526 605 22,100 60 Climbing Seattle Center
18:44 47.7553 -117.1014 94° East 524 603 22,100 -60 Level Seattle Center
18:45 47.7453 -116.8819 94° East 523 602 22,000  Descending Seattle Center
18:46 47.8131 -116.7400 55° Northeast 483 556 22,200  Climbing Seattle Center
18:47 47.9219 -116.7978 340° North 450 518 22,000 -240 Descending Seattle Center
18:48 48.0064 -116.9225 315° West 448 516 21,800  Descending Seattle Center
18:49 48.0436 -117.1369 285° West 453 521 22,000 60 Climbing Seattle Center
18:50 48.0589 -117.3253 277° West 465 535 22,000  Level Seattle Center
18:51 48.0656 -117.5133 273° West 461 531 22,000  Level Seattle Center
18:52 48.0692 -117.7022 272° West 459 528 22,000  Level Seattle Center
18:53 48.0631 -117.8850 267° West 448 516 22,000 -60 Level Seattle Center
18:54 48.0569 -118.0644 267° West 439 505 21,900 -60 Descending Seattle Center
18:55 48.0528 -118.2200 268° West 383 441 21,900  Level Seattle Center
18:56 48.0467 -118.3778 267° West 381 438 22,000  Climbing Seattle Center
18:57 48.0414 -118.5328 267° West 378 435 22,000  Level Seattle Center
18:58 48.0347 -118.6906 266° West 380 437 22,000  Level Seattle Center
18:59 48.0411 -118.8461 274° West 377 434 22,000  Level Seattle Center
19:05 48.0800 -119.7420 274° West 355 409 22,000  Level FlightAware
19:06 48.0840 -119.8310 274° West 354 407 22,000  Level FlightAware
19:06 48.0870 -119.9090 273° West 353 406 22,000  Level FlightAware
19:07 48.0900 -119.9950 273° West 355 409 22,000  Level FlightAware
19:08 48.0940 -120.0860 274° West 355 409 22,000  Level FlightAware
19:08 48.0980 -120.1650 274° West 371 427 22,000  Level FlightAware
19:09 48.1030 -120.2630 274° West 417 480 22,000  Level FlightAware
19:09 48.1090 -120.3710 275° West 441 507 22,000  Level FlightAware
19:10 48.1150 -120.4670 275° West 442 509 22,000  Level FlightAware
19:10 48.1220 -120.5780 275° West 443 510 22,000  Level FlightAware
19:11 48.1270 -120.6930 274° West 446 513 22,000  Level FlightAware
19:12 48.1280 -120.7970 271° West 446 513 22,000  Level FlightAware
19:12 48.1290 -120.9040 271° West 448 516 22,000  Level FlightAware
19:13 48.1280 -121.0170 269° West 447 514 22,000  Level FlightAware
19:13 48.1270 -121.1230 269° West 459 528 22,000 60 Level FlightAware
19:14 48.1260 -121.2380 269° West 470 541 22,100 120 Climbing FlightAware
19:15 48.1260 -121.3390 270° West 466 536 22,200 -120 Climbing FlightAware
19:15 48.1240 -121.4590 269° West 471 542 22,000 -180 Descending FlightAware
19:16 48.1240 -121.5590 270° West 472 543 22,000  Level FlightAware
19:17 48.1230 -121.7200 270° West 446 513 22,000  Level FlightAware
19:17 48.1220 -121.8200 269° West 399 459 22,000  Level FlightAware
19:18 48.1210 -121.9100 269° West 342 394 22,000  Level FlightAware
19:18 48.1180 -121.9960 267° West 293 337 22,000 -120 Level FlightAware
19:19 48.1160 -122.0550 267° West 283 326 21,900 -1,140 Descending FlightAware
19:19 48.1100 -122.1250 263° West 285 328 20,800 -2,100 Descending FlightAware
19:20 48.1020 -122.2000 261° West 277 319 19,300 -2,760 Descending FlightAware
19:21 48.0960 -122.2560 261° West 290 334 17,600 -3,540 Descending FlightAware
19:21 48.0880 -122.3290 261° West 311 358 15,500 -4,440 Descending FlightAware
19:22 48.0790 -122.4190 262° West 342 394 12,100 -4,380 Descending FlightAware
19:22 48.0710 -122.4880 260° West 335 386 10,400 -2,640 Descending FlightAware
19:23 48.0660 -122.5220 258° West 321 369 9,900 -1,200 Descending FlightAware
19:23 48.0500 -122.5530 232° Southwest 317 365 9,700 -240 Descending FlightAware
19:23 48.0360 -122.5630 206° Southwest 312 359 9,800 240 Climbing FlightAware
19:23 48.0140 -122.5720 195° South 304 350 9,800  Level FlightAware
19:24 47.9820 -122.5840 194° South 292 336 9,800  Level FlightAware
19:24 47.9530 -122.5940 193° South 267 307 9,800 -180 Level FlightAware
19:25 47.9270 -122.6040 194° South 255 293 9,700 -1,080 Descending FlightAware
19:25 47.9040 -122.6130 195° South 258 297 9,100 -1,620 Descending FlightAware
19:25 47.8820 -122.6200 192° South 259 298 8,700 -1,620 Descending FlightAware
19:26 47.8570 -122.6290 194° South 251 289 8,000 -2,220 Descending FlightAware
19:26 47.8330 -122.6370 193° South 248 285 7,100 -2,580 Descending FlightAware
19:26 47.8100 -122.6460 195° South 243 280 6,300 -2,220 Descending FlightAware
19:27 47.7850 -122.6550 194° South 238 274 5,500 -1,860 Descending FlightAware
19:27 47.7720 -122.6590 192° South 237 273 5,200 -1,140 Descending FlightAware
19:27 47.7520 -122.6670 195° South 234 269 4,900 -720 Descending FlightAware
19:27 47.7350 -122.6780 204° Southwest 228 262 4,800 -180 Descending FlightAware
19:28 47.7280 -122.7130 253° West 218 251 4,800  Level FlightAware
19:28 47.7330 -122.7240 304° West 215 247 4,800  Level FlightAware
19:28 47.7380 -122.7290 326° Northwest 216 249 4,800  Level FlightAware
19:28 47.7430 -122.7320 338° Northwest 217 250 4,800  Level FlightAware
19:28 47.7530 -122.7340 352° North 218 251 4,800  Level FlightAware
19:29 47.7760 -122.7150 29° Northeast 226 260 4,800  Level FlightAware
19:29 47.7810 -122.7040 56° Northeast 228 262 4,800  Level FlightAware
19:29 47.7910 -122.6760 62° Northeast 216 249 4,800 -180 Level FlightAware
19:30 47.8010 -122.6520 58° Northeast 188 216 4,700 -480 Descending FlightAware
19:30 47.8080 -122.6310 64° Northeast 177 204 4,500 -1,020 Descending FlightAware
19:30 47.8170 -122.6070 61° Northeast 170 196 4,000 -1,800 Descending FlightAware
19:31 47.8220 -122.5920 64° Northeast 174 200 3,400 -2,220 Descending FlightAware
19:31 47.8120 -122.5610 116° Southeast 175 201 2,400 -1,980 Descending FlightAware
19:31 47.8070 -122.5540 137° Southeast 173 199 2,200 -900 Descending FlightAware
19:32 47.7960 -122.5370 134° Southeast 171 197 2,000 -300 Descending FlightAware
19:32 47.7840 -122.5210 138° Southeast 173 199 2,000  Level FlightAware
19:32 47.7710 -122.5080 146° Southeast 176 203 2,000  Level FlightAware
19:33 47.7550 -122.4940 150° Southeast 174 200 2,000  Level FlightAware
19:33 47.7410 -122.4820 150° Southeast 175 201 2,000  Level FlightAware
19:33 47.7260 -122.4690 150° Southeast 174 200 2,000  Level FlightAware
19:34 47.7120 -122.4570 150° Southeast 175 201 2,000  Level FlightAware
19:34 47.6990 -122.4460 150° Southeast 174 200 2,000  Level FlightAware
19:34 47.6810 -122.4310 151° Southeast 173 199 2,000  Level FlightAware
19:35 47.6680 -122.4190 148° Southeast 172 198 2,000  Level FlightAware
19:35 47.6530 -122.4070 152° Southeast 173 199 2,000  Level FlightAware
19:35 47.6400 -122.3960 150° Southeast 171 197 2,000 -300 Level FlightAware
19:36 47.6220 -122.3810 151° Southeast 170 196 1,800 -840 Descending FlightAware
19:36 47.6100 -122.3700 148° Southeast 167 192 1,400 -960 Descending FlightAware
19:36 47.6020 -122.3630 149° Southeast 167 192 1,300 -960 Descending FlightAware
19:37 47.5890 -122.3520 150° Southeast 159 183 900 -1,080 Descending FlightAware
19:37 47.5760 -122.3410 150° Southeast 160 184 600 -960 Descending FlightAware
19:37 47.5600 -122.3280 151° Southeast 160 184 200 -240 Descending FlightAware
19:38 47.5650 -122.3320 332° Northwest 161 185 400  Climbing FlightAware
19:38 47.5450 -122.3150 150° Southeast 159 183 200 -300 Descending FlightAware